FW8807 Weather Reports


time (UTC)temp
C
wind
direction
speed
KPH
gust
KPH
rain 1hr
cm
rain 24hr
cm
rain mn
cm
humidity
%
barometer
mb
20260504005018 16 270 4.8 16.1 0.00 1.27 0.86 87 1015.4
20260504004018 15 225 4.8 12.9 0.00 1.27 0.86 88 1015.4
20260504003018 15 270 6.4 16.1 0.05 1.27 0.86 89 1015.3
20260504002018 15 270 4.8 16.1 0.05 1.27 0.86 89 1015.2
20260504001018 15 270 3.2 14.5 0.05 1.27 0.86 90 1015.1
20260504000018 15 248 1.6 9.7 0.05 1.27 0.86 90 1015.0
20260503235017 15 248 1.6 6.4 0.05 1.27 0.86 90 1014.9
20260503234018 15 270 3.2 14.5 0.05 1.27 0.86 90 1014.8
20260503233100 15 270 4.8 20.9 0.03 1.22 0.81 90 1014.7
20260503232018 14 270 1.6 9.7 0.00 1.19 0.79 91 1014.4
20260503231018 14 270 1.6 4.8 0.00 1.19 0.79 91 1014.4
20260503230020 13 270 1.6 9.7 0.00 1.19 0.79 91 1014.2
20260503225018 13 0.0 1.6 0.00 1.19 0.79 91 1014.1
20260503224038 13 270 1.6 16.1 0.00 1.19 0.79 90 1014.0
20260503223058 13 270 4.8 11.3 0.00 1.19 0.79 90 1013.9
20260503222018 13 270 1.6 6.4 0.03 1.19 0.79 90 1013.9
20260503221018 13 270 1.6 9.7 0.28 1.19 0.79 90 1013.7
20260503220019 13 270 3.2 14.5 0.30 1.19 0.79 90 1013.4
20260503215018 13 270 1.6 11.3 0.30 1.19 0.79 90 1013.3
20260503214018 13 270 1.6 9.7 0.30 1.19 0.79 90 1013.3
20260503213019 13 270 3.2 12.9 0.30 1.19 0.79 89 1013.2
20260503212018 13 270 1.6 6.4 0.28 1.17 0.79 90 1013.2
20260503211017 13 293 6.4 19.3 0.05 0.91 0.51 89 1013.1
20260503210018 13 270 3.2 11.3 0.03 0.89 0.51 90 1012.9
20260503205019 13 293 4.8 19.3 0.03 0.89 0.51 89 1012.9
20260503204018 13 293 3.2 12.9 0.03 0.89 0.51 89 1012.7
20260503203019 13 293 4.8 16.1 0.03 0.89 0.51 89 1012.7
20260503202017 13 270 4.8 17.7 0.03 0.99 0.51 89 1012.5
20260503201017 13 270 3.2 9.7 0.08 0.97 0.48 89 1012.3
20260503200018 13 293 3.2 11.3 0.08 0.97 0.48 89 1012.3
20260503195019 13 315 3.2 8.0 0.08 0.97 0.48 89 1012.4
20260503194017 13 293 3.2 12.9 0.08 0.97 0.48 89 1012.4
20260503193017 13 225 6.4 19.3 0.08 0.97 0.48 88 1012.4
20260503192018 13 270 4.8 16.1 0.08 0.97 0.48 88 1012.2
20260503191017 13 270 4.8 14.5 0.00 0.89 0.41 88 1012.1
20260503190038 13 293 4.8 16.1 0.00 0.89 0.41 88 1012.2
20260503185017 13 270 6.4 24.1 0.00 0.89 0.41 89 1012.1
20260503184019 13 270 4.8 14.5 0.00 0.89 0.41 89 1012.1
20260503183018 13 293 3.2 11.3 0.00 0.89 0.41 89 1012.0
20260503182019 13 293 3.2 9.7 0.00 1.09 0.41 89 1012.0
20260503181017 13 293 3.2 6.4 0.00 1.09 0.41 89 1012.1
20260503180017 13 248 3.2 16.1 0.00 1.09 0.41 89 1012.2
20260503175019 13 293 4.8 19.3 0.00 1.09 0.41 90 1012.3
20260503174017 13 293 3.2 14.5 0.00 1.09 0.41 89 1012.3
20260503173017 13 293 4.8 12.9 0.00 1.09 0.41 89 1012.4
20260503172037 13 315 1.6 8.0 0.00 1.12 0.41 89 1012.5
20260503171017 13 270 3.2 9.7 0.03 1.12 0.41 89 1012.5
20260503131037 13 293 3.2 14.5 0.00 0.71 0.71 87 1013.3
20260503081017 15 270 4.8 16.1 0.00 0.43 0.41 76 1012.0
20260503072016 15 315 6.4 19.3 0.00 0.48 0.41 77 1011.9
20260503071016 15 293 8.0 24.1 0.03 0.48 0.41 77 1012.0
20260503055016 17 315 8.0 25.7 0.00 0.51 0.33 64 1011.5
20260503054037 18 293 11.3 22.5 0.00 0.51 0.33 63 1011.6
20260503053016 18 293 11.3 29.0 0.00 0.51 0.33 61 1011.4
20260503052018 18 315 9.7 22.5 0.00 0.71 0.33 60 1011.5
20260503051016 18 293 9.7 20.9 0.00 0.71 0.33 60 1011.4
20260503050016 18 293 12.9 33.8 0.00 0.71 0.33 60 1011.5
20260503045016 18 293 14.5 27.4 0.00 0.71 0.33 61 1011.4
20260503044016 17 293 12.9 30.6 0.00 0.71 0.33 63 1011.5
20260503043016 17 293 11.3 22.5 0.00 0.71 0.33 62 1011.5
20260503042017 18 315 11.3 25.7 0.00 0.86 0.33 62 1011.4
20260503041016 18 315 9.7 24.1 0.00 0.86 0.33 61 1011.5
20260503040036 18 315 9.7 22.5 0.00 0.86 0.33 61 1011.7
20260503035018 18 293 6.4 16.1 0.00 0.86 0.33 63 1011.7
20260503034017 18 315 9.7 24.1 0.00 0.86 0.33 63 1011.8
20260503033016 18 293 11.3 25.7 0.00 0.86 0.33 64 1011.8
20260503032016 17 293 8.0 19.3 0.00 0.94 0.33 67 1011.9
20260503031016 16 315 9.7 25.7 0.00 0.94 0.33 68 1011.9
20260503030038 17 315 12.9 35.4 0.00 0.94 0.33 66 1011.9
20260503025017 17 293 11.3 25.7 0.00 0.94 0.33 67 1011.9
20260503024038 17 293 11.3 22.5 0.00 0.94 0.33 68 1011.9
20260503023018 17 315 8.0 20.9 0.00 0.94 0.33 71 1012.2
20260503022018 16 315 9.7 22.5 0.00 0.94 0.33 72 1012.1
20260503021038 16 315 12.9 30.6 0.00 0.94 0.33 72 1012.3
20260503020019 16 293 11.3 25.7 0.00 0.94 0.33 72 1012.4
20260503015018 16 315 11.3 24.1 0.00 0.94 0.33 71 1012.3
20260503014018 16 315 11.3 25.7 0.00 0.94 0.33 71 1012.3
20260503013040 16 293 11.3 27.4 0.00 0.94 0.33 72 1012.4
20260503012018 15 338 14.5 27.4 0.00 0.94 0.33 72 1012.4
20260503011018 15 315 6.4 22.5 0.00 0.94 0.33 73 1012.5
20260503010018 15 338 12.9 27.4 0.00 0.94 0.33 73 1012.6